SCP
0 0 0 0 0 0 0 0 0 0 0 0 0 0 0 0 0 0 0 0 0 0 0 0 0 0 0 0 0 0 0 0 0 0 0 0 0 0 0 0 0 0 0 0
0 0 0 0 0 0 0 0 0 0 0 0 0 0 0 0 0 0 0 0 0 0 0 0 0 0 0 0 0 0 0 0 0 0 0 0 0 0 0 0 0 0 0 0
0 0 0 0 0 0 0 0 0 0 0 0 0 0 0 0 0 0 0 0 0 0 0 0 0 0 0 0 0 0 0 0 0 0 0 0 0 0 0 0 0 0 0 0
0 0 0 0 0 -0 0 0 0 0 0 0 0 0 0 0 0 0 0 0 0 0 0 0 0 0 0 0 0 0 0 0 0 0 0 0 0 0 0 0 0 0 0 0
0 0 0 0 0 -0 0 0 0 0 0 0 0 0 0 0 0 0 0 0 0 0 0 0 0 0 0 0 0 0 0 0 0 0 0 0 0 0 0 0 0 0 0 0
0 0 0 0 0 0 0 0 0 0 0 0 0 0 0 0 0 0 0 0 0 0 0 0 0 0 0 0 0 0 0 0 0 0 0 0 0 0 0 0 0 0 0 0
0 0 0 0 0 0 0 0 0 0 -0 -0 0 0 0 0 0 0 0 0 0 0 0 0 0 0 0 0 0 0 0 0 0 0 0 0 0 0 0 0 0 0 0 0
0 0 0 0 0 0 0 0 0 -0 -0 -0 0 0 0 0 0 0 0 0 0 0 0 0 0 0 0 0 0 0 0 0 0 0 0 0 0 0 0 0 0 0 0 0
0 0 0 0 0 0 0 0 0 0 0 0 0 0 0 0 0 0 0 0 0 0 0 0 0 0 0 -0 0 0 0 0 0 0 0 0 0 0 0 0 0 0 0 0
0 0 0 0 -0 -0 0 0 0 0 0 0 0 0 0 0 0 0 0 0 0 0 0 0 0 0 0 -0 -0 0 0 0 -0 0 0 0 0 0 0 0 0 0 0 0
0 0 0 -0 -0 0 0 0 0 0 0 0 0 0 0 0 0 0 -0 -0 -0 -0 -0 -0 -0 -0 0 0 -0 -0 -0 0 0 0 0 0 0 0 0 0 0 0 0 0
0 0 0 0 -0 0 0 0 0 0 0 0 0 0 0 -0 -0 -0 -0 -0 -0 -0 -0 -0 -0 -0 0 0 -0 -0 -0 0 0 0 0 0 0 0 0 0 0 0 0 0
0 0 0 0 -0 0 0 0 0 0 0 0 0 0 0 -0 -0 -0 -0 -0 -0 -0 -0 -0 -0 -0 0 0 0 0 0 0 0 0 0 0 0 0 0 0 0 0 0 0
0 0 0 0 0 0 0 0 0 0 0 0 0 0 0 0 0 0 0 0 0 -0 -0 -0 0 0 0 0 0 0 0 0 0 0 0 0 0 0 0 0 0 0 0 0
0 0 0 0 0 0 0 0 0 0 0 0 0 0 0 0 0 0 0 0 0 0 0 0 0 0 0 0 0 0 0 0 0 0 0 0 0 0 0 0 0 0 0 0
0 0 0 0 0 0 0 0 0 0 0 0 0 0 0 0 0 0 0 0 0 0 0 0 0 0 0 0 0 0 0 0 0 0 0 0 0 0 0 0 0 0 0 0
0 0 0 0 0 0 0 0 0 0 0 0 0 0 0 0 0 0 0 0 0 0 0 0 0 0 0 0 0 0 0 0 0 0 0 0 0 0 0 0 0 0 0 0
0 0 0 0 0 0 0 0 0 0 0 0 0 0 0 0 0 0 0 0 0 0 0 0 0 0 0 0 0 0 0 0 0 0 0 0 0 0 0 0 0 0 0 0
0 -0 -0 0 0 0 0 0 0 0 0 0 0 0 0 0 0 0 0 0 0 0 0 0 0 0 0 0 0 0 0 0 0 0 0 0 0 0 0 0 0 0 0 0
0 0 -0 0 0 0 0 0 0 0 0 0 0 0 0 0 0 0 0 0 0 0 0 0 0 0 0 0 0 0 0 0 0 0 0 0 0 0 0 0 0 0 0 0
0 0 0 0 0 0 0 0 0 0 0 0 0 0 0 0 0 0 0 0 0 0 0 0 0 0 0 0 0 0 0 0 0 0 0 0 0 0 0 0 0 0 0 0
0 0 0 0 0 0 0 0 0 0 0 0 0 0 0 0 0 0 0 0 0 0 0 0 0 0 0 0 0 0 0 0 0 0 0 0 0 0 0 0 0 0 0 0
0 0 0 0 0 0 0 0 0 0 0 0 0 0 0 0 0 0 0 0 0 0 0 0 0 0 0 0 0 0 0 0 0 0 0 0 0 0 0 0 0 0 0 0
0 0 0 0 0 0 0 0 0 0 0 0 0 0 0 0 0 0 0 0 0 0 0 0 0 0 0 0 0 0 0 0 0 0 0 0 0 0 0 0 0 0 0 0
0 0 0 0 0 0 0 0 0 0 0 0 0 0 0 0 0 0 0 0 0 0 0 0 0 0 0 0 0 0 0 0 0 0 0 0 0 0 0 0 0 0 0 0
0 0 0 0 0 0 0 0 0 0 0 0 0 0 0 0 0 0 0 0 0 0 0 0 0 0 0 0 0 0 0 0 0 0 0 0 0 0 0 0 0 0 0 0
0 0 0 0 0 0 0 0 0 0 0 0 0 0 0 0 0 0 0 0 0 0 0 0 0 0 0 0 0 0 0 0 0 0 0 0 0 0 0 0 0 0 0 0
Wind_Speed
4 4 4 6 7 10 12 11 9 10 11 17 15 14 11 8 9 10 10 9 8 6 5 4 4 4 5 6 7 8 9 10 11 12 12 13 13 13 13 13 13 12 12 11
3 4 6 7 10 12 13 13 16 17 19 16 12 7 7 7 8 9 9 8 7 5 5 5 5 6 7 8 8 9 11 11 11 13 13 13 13 13 14 13 13 12 11 9
3 4 2 7 11 13 9 9 10 14 13 10 10 8 5 6 6 7 8 7 6 5 5 6 6 7 8 9 10 11 12 12 12 14 14 14 14 14 13 12 12 11 9 8
2 3 5 6 2 7 9 9 10 9 9 8 7 3 1 3 4 5 6 6 6 6 7 7 8 9 10 11 12 13 13 13 12 13 14 14 14 13 12 10 9 8 7 6
1 3 7 7 3 4 4 6 5 7 8 6 3 1 1 3 4 4 5 5 5 6 7 8 9 10 12 12 12 13 13 12 12 12 13 13 12 11 9 9 7 6 5 5
2 3 5 5 2 2 2 4 4 5 6 5 2 3 1 3 4 5 6 5 6 7 9 9 9 10 13 12 12 13 12 12 11 12 12 11 10 9 7 7 6 5 4 3
5 4 8 8 3 2 1 4 4 4 5 3 3 2 3 5 5 5 6 6 7 8 9 8 9 11 13 12 12 11 12 12 11 10 10 10 8 7 6 5 5 4 4 3
5 6 9 4 3 4 5 4 3 3 3 3 4 5 6 5 5 6 6 7 8 8 8 7 8 11 12 11 10 10 11 11 10 9 8 7 7 6 5 5 5 4 4 4
7 9 6 3 4 3 2 3 3 2 2 5 7 6 6 6 6 6 7 7 7 8 8 7 7 9 11 9 9 10 10 9 8 8 7 5 5 6 4 4 4 3 3 2
5 8 7 7 5 3 2 3 2 2 3 6 7 8 8 7 7 7 7 7 7 8 8 7 7 8 9 8 8 9 10 8 7 7 6 5 4 4 4 3 3 2 2 1
6 7 5 4 3 3 2 2 1 1 3 6 9 10 9 8 8 7 7 7 7 7 8 8 8 8 8 7 8 9 8 7 6 6 5 5 4 3 3 2 2 2 1 1
6 5 4 5 3 3 3 3 2 2 3 5 9 11 10 9 8 8 8 8 8 8 8 8 8 7 6 6 7 8 7 6 4 4 4 4 4 3 6 4 6 4 2 0
4 3 3 4 1 1 2 2 2 3 5 7 8 10 10 9 8 9 9 9 9 9 8 8 8 7 6 6 6 7 7 5 4 4 4 3 3 3 2 4 6 7 7 7
3 2 3 3 2 2 3 3 4 4 5 7 8 9 9 9 9 10 9 9 9 9 8 8 8 6 5 6 7 7 6 7 6 4 3 3 3 2 2 1 2 3 5 8
5 4 3 1 3 3 4 4 5 5 6 6 8 9 10 10 10 9 9 9 10 9 8 8 8 6 5 7 7 7 6 4 4 3 3 3 3 2 2 2 1 2 3 4
7 4 1 2 3 4 4 5 6 6 6 7 8 8 9 10 10 9 9 9 10 10 8 8 7 6 6 7 7 5 5 8 6 4 3 3 2 2 1 1 1 2 3 4
5 4 2 3 4 5 6 6 6 7 7 8 9 10 11 11 11 10 8 7 7 7 6 7 7 6 6 6 6 5 4 5 7 4 2 2 2 1 1 1 2 2 3 5
7 7 6 6 6 6 7 7 7 8 8 8 10 11 12 12 12 11 10 10 9 7 5 5 6 7 6 6 5 4 4 3 3 3 2 1 1 1 1 1 2 3 3 5
7 6 5 5 5 6 7 8 8 9 9 10 11 11 10 9 10 11 10 11 11 9 5 6 11 7 6 6 7 4 4 4 3 2 1 2 2 1 1 2 3 3 4 4
8 7 5 2 1 3 6 7 9 9 10 11 11 10 10 10 10 10 9 7 4 5 7 8 7 6 5 6 7 4 4 3 3 2 1 1 1 1 2 3 3 4 4 4
9 7 5 2 1 3 5 8 9 10 10 10 11 11 11 10 10 9 9 6 4 7 8 11 6 5 4 6 7 4 3 3 2 1 0 0 1 2 2 3 4 4 4 5
8 6 4 2 2 3 4 6 7 9 10 9 9 10 11 11 9 7 4 5 7 12 7 5 4 7 8 8 4 3 3 2 2 1 0 1 2 2 3 3 4 4 4 5
7 5 4 2 1 2 4 4 6 8 9 10 11 12 11 9 8 8 6 5 7 12 7 5 8 11 11 5 3 3 2 2 1 1 1 1 2 3 3 4 4 4 5 5
6 5 4 2 1 3 3 4 5 5 6 7 7 8 9 8 5 3 4 13 14 12 6 9 13 11 9 4 3 2 2 1 1 1 2 2 2 3 3 4 4 5 5 6
6 4 3 2 0 1 2 4 5 6 6 5 6 7 5 4 5 6 7 9 14 13 6 9 12 10 6 3 3 2 2 2 2 2 2 2 3 3 4 4 4 5 5 6
5 4 3 3 2 2 3 4 5 5 6 6 5 5 5 5 6 7 7 8 10 11 6 4 5 6 3 3 2 2 1 1 2 1 2 3 4 4 4 5 6 5 6 6
5 3 3 2 1 2 3 4 5 6 7 7 7 6 6 7 7 7 8 7 7 6 5 4 4 3 3 2 2 1 1 1 2 2 3 3 4 4 5 6 5 5 6 6
Wind_Direction
237 235 196 210 209 200 206 211 223 249 261 280 292 299 305 313 320 321 322 327 329 329 333 353 16 41 64 72 79 95 104 108 112 114 114 115 115 115 114 113 111 110 108 106
283 249 220 235 231 221 224 230 241 260 274 276 285 296 310 325 328 329 331 335 339 350 10 32 44 54 64 70 76 87 96 100 105 108 108 108 108 108 106 105 104 103 103 106
285 316 334 258 229 211 209 214 217 244 256 280 298 310 323 331 332 331 334 341 352 13 36 51 62 70 76 79 82 86 90 94 99 102 102 101 102 101 100 99 98 97 99 102
299 338 250 248 259 189 207 235 227 241 266 285 295 299 29 360 338 339 349 2 19 38 56 64 73 79 84 85 88 91 92 93 95 99 100 99 98 97 97 97 100 103 106 111
237 278 281 286 257 182 201 262 228 237 267 284 302 255 175 37 28 18 22 34 46 58 71 77 81 88 92 90 91 93 95 96 97 100 100 100 100 100 100 101 102 106 113 119
208 260 257 263 268 133 126 272 239 232 264 280 290 290 298 72 59 51 51 55 64 70 76 79 83 91 94 94 94 94 96 96 97 99 102 102 103 101 99 103 106 108 102 99
217 246 266 257 247 121 233 264 255 239 249 251 222 221 116 103 88 77 75 74 75 77 78 80 88 94 95 95 97 100 99 97 96 98 102 104 102 102 107 107 104 95 88 71
192 218 254 259 160 193 239 266 268 254 233 184 147 122 119 115 111 104 96 91 90 88 85 84 91 98 97 96 97 100 101 99 96 95 97 102 105 103 101 103 97 90 85 67
202 222 242 250 231 250 262 264 262 243 208 153 147 148 139 129 124 119 115 110 106 104 98 91 93 104 107 107 110 108 104 101 99 95 93 100 106 106 95 90 93 89 85 74
247 259 260 262 258 253 250 252 255 236 196 164 155 149 144 141 136 131 125 122 120 115 110 104 103 105 112 118 117 112 109 106 105 102 95 84 83 89 94 96 97 98 97 82
251 270 286 272 237 231 239 242 250 234 189 168 152 151 151 148 145 139 132 128 124 121 119 117 117 116 120 123 121 115 109 104 98 94 96 86 76 81 98 104 134 132 156 188
236 242 239 264 245 207 218 230 214 181 147 148 153 151 149 147 144 140 136 130 127 126 126 125 122 118 115 116 119 118 111 104 100 97 91 89 87 67 67 78 72 72 85 348
257 273 251 261 250 190 199 195 174 166 157 147 144 147 147 144 141 138 136 137 136 133 130 126 120 115 112 111 111 113 117 114 104 101 100 100 99 96 67 34 43 39 25 9
296 289 268 250 226 165 140 121 110 108 122 135 139 141 141 138 138 140 142 139 133 130 128 124 119 115 114 113 110 108 109 114 111 107 108 105 100 96 91 69 16 348 355 359
339 318 272 216 129 127 126 124 121 124 127 128 135 142 145 144 144 141 136 133 129 127 127 125 120 116 114 113 114 114 111 108 107 106 102 98 95 91 81 66 33 337 326 338
319 319 290 185 181 169 158 157 156 155 149 144 144 145 142 136 133 132 133 138 140 140 137 131 127 126 121 118 116 110 114 124 119 110 102 96 90 84 66 36 5 342 331 321
307 296 272 252 223 207 196 188 175 165 157 152 147 140 136 133 133 134 132 126 123 122 127 132 131 125 120 120 119 117 112 119 117 107 103 103 94 74 38 3 342 328 316 316
277 271 259 248 233 216 201 183 170 163 157 150 144 145 148 150 149 144 137 127 117 107 108 121 126 120 117 118 117 117 115 113 115 115 109 103 94 54 8 344 330 322 313 317
315 302 287 260 228 204 188 176 167 158 151 151 153 154 151 146 142 141 141 141 142 142 149 147 138 125 123 131 125 114 117 116 110 102 88 67 59 17 349 329 318 312 310 313
334 332 327 316 203 172 166 158 153 152 155 154 151 147 145 146 146 146 145 144 152 147 145 141 130 126 126 134 127 115 119 120 118 110 91 60 3 331 324 321 317 310 308 308
341 342 348 6 69 130 148 152 154 156 157 157 159 158 153 148 148 149 148 143 141 139 144 144 135 133 132 135 127 119 120 120 121 120 104 336 316 313 315 316 314 310 307 307
341 344 352 16 84 122 139 150 154 155 155 154 151 149 149 151 150 144 137 147 153 154 144 138 139 149 149 135 121 124 125 127 131 141 208 290 299 302 302 302 298 297 296 297
340 342 347 360 94 135 136 148 154 159 162 164 163 164 164 161 161 158 156 153 152 157 146 151 160 155 144 129 128 129 133 141 157 200 252 271 277 280 284 289 288 289 291 293
340 343 342 351 82 136 151 151 147 150 153 156 160 160 157 151 147 138 135 157 163 156 152 164 161 154 142 130 132 136 148 165 203 250 265 271 275 278 280 284 287 289 287 290
330 329 331 337 231 183 163 143 136 140 143 146 146 147 147 147 150 150 149 156 161 152 151 164 159 150 138 136 145 155 173 210 227 240 252 270 277 280 280 280 281 284 286 286
320 317 310 295 267 195 168 162 163 163 159 156 153 149 138 127 131 140 144 147 152 152 146 135 137 141 139 148 157 172 197 255 303 296 272 274 275 277 278 281 283 282 282 283
311 308 308 310 284 200 184 179 177 177 174 169 160 156 149 144 145 147 145 145 143 142 140 135 134 139 147 155 170 193 219 244 261 269 272 270 270 271 275 278 279 280 282 283